Location: Lecco
(45.8566°N, 9.3977°E)
Time: 18:48:41
(UTC+02:00)

OTV 5 (USA 277) - Pass Details

Date: 17 June 2019
Orbit: 299 x 335 km, 54.5° (Epoch: 13 July)

Event Time Altitude Azimuth Distance (km) Brightness Sun altitude
Exits shadow 00:34:51 12° 67° (ENE) 1,138 ? -19.9°
Drops below altitude 10° 00:35:10 10° 65° (ENE) 1,266 ? -19.9°
Enters shadow 01:37:01 -56° 242° (WSW) 10,911 ? -20.7°
